Погода в Майском

Россия / Новосибирская область     54°11′18″N   83°21′48″E
темп.,
°C
ветер,
м/с
пор.,
м/с
влажн.,
%
обл.,
%
осадки,
мм/ч
давл.,
гПа
погр.,
м
17 мая, пн
пн1701:00+14зюз3494100 9.3 1011142
04:00+12сз239827 0.0 101248
07:00+14с3589100 0.0 1013392
10:00+16ссв457795 0.0 1015703
13:00+20ссз455667 0.0 10141242
16:00+21сз475265 0.0 10141822
19:00+20сз375995 0.0 10141162
22:00+17ю117179 0.1 101311
18 мая, вт
вт1801:00+15ююз4892100 5.2 1012272
04:00+13ю4896100 0.4 1010160
07:00+15ююз6168699 1.6 1007521
10:00+20з8146739 0.0 1005852
13:00+22зсз9135292 0.0 10051400
16:00+22сз79495 0.0 10061685
19:00+21сз575668 0.0 1005679
22:00+15св598684 0.1 1006371
19 мая, ср
ср1901:00+12ссв2491100 0.7 1006121
04:00+10с7996100 0.9 1005353
07:00+8ссв61093100 1.2 1006497
10:00+9ссв71077100 0.0 1008857
13:00+11ссв7859100 0.1 10091573
16:00+13с7842100 0.0 10092160
19:00+11ссв684957 0.0 10101974
22:00+7ссв6125138 0.0 1012517
20 мая, чт
чт2001:00+5с385478 0.0 1013313
04:00+2с49625 0.0 1013220
07:00+3с597143 0.1 1015928
10:00+5с7845100 0.1 10162236
13:00+5с7838100 0.1 10172456
16:00+7с6935100 0.0 10172882
19:00+8с583924 0.0 10192489
22:00+4зсз22485 0.0 102010
21 мая, пт
пт2101:00+2з345830 0.0 102150
04:00+1зсз346411 0.0 102247
07:00+3з226177 0.0 102386
10:00+8юз344398 0.0 10231080
13:00+10юз4536100 0.0 10231766
16:00+12юз453387 0.0 10211925
19:00+13юз3642100 0.0 10211927
22:00+8ю3754100 0.0 1021120